Regional Weather Roundup
Issued by NWS Jackson, KY

Home | Current Version | Previous Version | Text Only | Print | Product List | Glossary On
Versions: 1 2 3 4 5 6 7 8 9 10 11 12 13 14 15 16 17 18 19 20 21 22 23 24 25 26 27 28 29 30 31 32 33 34 35 36 37 38 39 40 41 42 43 44 45 46 47 48 49 50
000
ASUS43 KJKL 292310
RWRJKL

EAST KENTUCKY HOURLY WEATHER ROUNDUP
NATIONAL WEATHER SERVICE JACKSON KY
700 PM EDT FRI APR 29 2016

NOTE: "FAIR" INDICATES FEW OR NO CLOUDS BELOW 12,000 FEET WITH
NO SIGNIFICANT WEATHER AND/OR OBSTRUCTIONS TO VISIBILITY.

* THESE REPORTS ARE NOT UNDER NWS QUALITY CONTROL AND MAY NOT
  REPORT WEATHER SUCH AS PRECIPITATION AND FOG.

KYZ079-080-083-085-087-088-110-112-115-119-120-300000
...EASTERN KENTUCKY...

CITY           SKY/WX    TMP DP  RH WIND       PRES   REMARKS
JACKSON        MOSUNNY   72  51  47 VRB3      30.02R
LONDON         CLOUDY    74  50  42 W8        30.02R
SOMERSET*      CLOUDY    72  48  43 NW3       30.02F
WILLIAMSBURG*  CLOUDY    72  50  46 NW3       30.02S
MIDDLESBORO*   CLOUDY    76  51  42 NW3       30.02R
HARLAN APT*      N/A     73  43  33 W5        30.02S
BLACK MTN*       N/A     64  45  48 NW2         N/A
PIKE CO APT*     N/A     73  51  45 W3        30.01R
BIG SANDY APT* CLOUDY    73  50  44 NW5       30.00R
MOREHEAD APT*  CLOUDY    68  50  52 W5        30.05R
$$

KYZ035-036-041-042-044-050-067-078-099-300000
...CENTRAL KENTUCKY...

CITY           SKY/WX    TMP DP  RH WIND       PRES   REMARKS
MT STERLING*   CLOUDY    68  52  56 N3        30.04F
FLEMING/MASON* CLOUDY    65  50  58 CALM      30.04R
DANVILLE*      CLOUDY    68  52  56 NW3       30.04S
RICHMOND*      CLOUDY    68  52  56 NW3       30.02S
LEXINGTON      CLOUDY    67  49  52 NW7       30.03S
FRANKFORT      CLOUDY    68  49  50 W3        30.02S
LOUISVILLE     CLOUDY    70  49  47 W5        30.00F
LEBANON*         N/A     68  54  60 CALM      30.03R
BOWLING GREEN  CLOUDY    70  58  65 CALM      30.00S
$$

KYZ091>093-OHZ055-061-077-WVZ005-015-034-035-042-300000
...SOUTHERN OHIO/WEST VIRGINIA...

CITY           SKY/WX    TMP DP  RH WIND       PRES   REMARKS
COVINGTON      CLOUDY    64  48  56 W8        30.03R
COLUMBUS       CLOUDY    56  47  71 N10       30.05R
DAYTON         CLOUDY    57  47  69 N12       30.07R
WILMINGTON     PTSUNNY   59  50  72 N10       30.04R
HUNTINGTON       N/A     71  52  50 NW6       29.99R
CHARLESTON     PTSUNNY   69  53  56 N8        29.98R
PINEVILLE*       N/A     75  39  26 MISG      30.04R
BECKLEY          N/A     70  45  40 NW8       30.01R
$$

VAZ002-007-008-TNZ017-027-036-066-071-300000
...SOUTHWEST VIRGINIA/EAST TENNESSEE...

CITY           SKY/WX    TMP DP  RH WIND       PRES   REMARKS
WISE*            N/A     70  37  30 W6        30.07R
BRISTOL        CLOUDY    75  53  46 SW8       30.00R
MORRISTOWN*    CLEAR     77  48  36 NW5       30.00R
KNOXVILLE      CLOUDY    79  48  33 NE3       29.99R
OAK RIDGE      CLOUDY    79  49  34 CALM      30.00R
CROSSVILLE     CLOUDY    72  46  39 N6        30.04S
NASHVILLE      CLOUDY    70  59  68 W12       30.03R
$$

...KEY TO REMARKS...
VSB - VISIBILITY IN MILES
WCI - WIND CHILL INDEX
HX  - HEAT INDEX

$$



USA.gov is the U.S. government's official web portal to all federal, state and local government web resources and services.